McConnell AFB, KS

2:52 AM CDT on June 28, 2017 (GMT -0500)
McConnell Air Force Base

Weather History for KIAB - November, 2012

Change the Weather History Date:

Saturday, November 3, 2012

  Actual Average Record
Temperature  
Mean Temperature 50 °F -  
Max Temperature 61 °F 58 °F 77 °F (2005)
Min Temperature 39 °F 40 °F 28 °F (2006)
Degree Days  
Heating Degree Days 15    
Moisture  
Dew Point 34 °F    
Average Humidity 57    
Maximum Humidity 74    
Minimum Humidity 34    
Precipitation  
Precipitation 0.00 in - - ()
Sea Level Pressure  
Sea Level Pressure 30.18 in    
Wind  
Wind Speed 8 mph (NNE)    
Max Wind Speed 16 mph    
Max Gust Speed 22 mph    
Visibility 4 miles    
Events      
Averages and records for this station are not official NWS values.
T = Trace of Precipitation, MM = Missing Value Source: NWS Daily Summary

Daily Weather History Graph

Daily Weather History Graph

Search for Another Location

Airport or City:

Trip Planner

Search our weather history database for the weather conditions in past years. The results will help you decide how hot, cold, wet, or windy it might be!

Date:

Astronomy

Nov. 03, 2012 Rise Set
Actual Time 7:56 AM CDT 6:27 PM CDT
Civil Twilight 7:29 AM CDT 6:55 PM CDT
Nautical Twilight 6:58 AM CDT 7:26 PM CDT
Astronomical Twilight 6:27 AM CDT 7:56 PM CDT
Moon 10:12 PM CDT (11/3) 11:59 AM CDT (11/3)
Length of Visible Light 11h 25m
Length of Day
10h 31m
Waning Gibbous, 80% of the Moon is Illuminated
Nov 3
Waning Gibbous
Nov 6
Last Quarter
Nov 13
New
Nov 20
First Quarter
Nov 28
Full

Hourly Weather History & Observations

Time (CDT) Temp. Windchill Dew Point Humidity Pressure Visibility Wind Dir Wind Speed Gust Speed Precip Events Conditions
12:55 AM 52.2 °F - 34.7 °F 51% 29.99 in 10.0 mi North 15.0 mph - N/A   Clear
1:55 AM 49.6 °F - 34.7 °F 56% 30.00 in 10.0 mi North 12.7 mph - N/A   Clear
2:55 AM 47.3 °F - 30.7 °F 53% 30.02 in 10.0 mi North 15.0 mph 21.9 mph N/A   Clear
3:55 AM 45.9 °F 39.1 °F 30.2 °F 54% 30.04 in 10.0 mi North 16.1 mph - N/A   Clear
4:55 AM 44.4 °F 37.9 °F 30.7 °F 59% 30.07 in 10.0 mi North 13.8 mph - N/A   Clear
5:55 AM 42.3 °F 35.1 °F 31.5 °F 66% 30.10 in 10.0 mi North 13.8 mph - N/A   Clear
6:55 AM 40.8 °F 34.5 °F 31.8 °F 70% 30.13 in 10.0 mi North 10.4 mph - N/A   Clear
7:55 AM 39.6 °F 33.5 °F 31.8 °F 74% 30.15 in 10.0 mi North 9.2 mph - N/A   Clear
8:55 AM 39.9 °F 33.4 °F 31.5 °F 72% 30.18 in 10.0 mi North 10.4 mph - N/A   Clear
9:55 AM 43.7 °F 36.6 °F 31.1 °F 61% 30.20 in 10.0 mi NNE 15.0 mph - N/A   Clear
10:55 AM 48.4 °F - 31.8 °F 53% 30.21 in 10.0 mi NNE 13.8 mph - N/A   Clear
11:55 AM 51.1 °F - 33.1 °F 50% 30.22 in 10.0 mi NNE 10.4 mph - N/A   Clear
12:55 PM 54.9 °F - 33.3 °F 44% 30.20 in 10.0 mi NNE 10.4 mph - N/A   Clear
1:55 PM 58.3 °F - 32.9 °F 38% 30.17 in 10.0 mi NNE 11.5 mph - N/A   Clear
2:55 PM 61.2 °F - 33.1 °F 35% 30.17 in 10.0 mi NE 8.1 mph - N/A   Clear
3:55 PM 61.5 °F - 32.7 °F 34% 30.17 in 10.0 mi NE 10.4 mph - N/A   Clear
4:55 PM 58.3 °F - 33.8 °F 40% 30.17 in 9.0 mi NNE 11.5 mph - N/A   Clear
5:55 PM 56.7 °F - 34.3 °F 43% 30.17 in 10.0 mi NE 6.9 mph - N/A   Clear
6:55 PM 54.0 °F - 34.3 °F 47% 30.18 in 9.0 mi North 4.6 mph - N/A   Clear
7:03 PM 53.6 °F - 33.8 °F 47% 30.18 in 3.0 mi NNW 3.5 mph - N/A   Haze
7:55 PM 52.5 °F - 34.9 °F 51% 30.19 in 10.0 mi Calm Calm - N/A   Clear
8:11 PM 53.6 °F - 33.8 °F 47% 30.20 in 4.0 mi Calm Calm - N/A   Haze
8:12 PM 53.6 °F - 33.8 °F 47% 30.20 in 4.0 mi Calm Calm - N/A   Haze
8:19 PM 53.6 °F - 35.6 °F 51% 30.20 in 2.5 mi Calm Calm - N/A   Haze
8:20 PM 51.8 °F - 35.6 °F 54% 30.20 in 1.8 mi Calm Calm - N/A   Haze
8:22 PM 51.8 °F - 35.6 °F 54% 30.20 in 1.2 mi Calm Calm - N/A   Haze
8:23 PM 51.8 °F - 35.6 °F 54% 30.20 in 1.0 mi Calm Calm - N/A   Haze
8:25 PM 51.8 °F - 35.6 °F 54% 30.20 in 0.8 mi Calm Calm - N/A   Haze
8:27 PM 51.8 °F - 35.6 °F 54% 30.20 in 0.5 mi Calm Calm - N/A   Haze
8:28 PM 51.8 °F - 35.6 °F 54% 30.20 in 0.5 mi Calm Calm - N/A   Haze
8:29 PM 51.8 °F - 35.6 °F 54% 30.20 in 0.5 mi Calm Calm - N/A   Haze
8:55 PM 49.5 °F - 34.7 °F 57% 30.21 in 0.5 mi NNE 3.5 mph - N/A   Haze
9:16 PM 50.0 °F - 35.6 °F 58% 30.20 in 0.8 mi Calm Calm - N/A   Haze
9:32 PM 50.0 °F - 35.6 °F 58% 30.20 in 0.8 mi Calm Calm - N/A   Haze
9:44 PM 50.0 °F - 35.6 °F 58% 30.21 in 0.8 mi Calm Calm - N/A   Haze
9:55 PM 48.9 °F - 35.4 °F 60% 30.21 in 0.8 mi Calm Calm - N/A   Haze
10:04 PM 48.2 °F - 35.6 °F 62% 30.21 in 1.2 mi Calm Calm - N/A   Haze
10:17 PM 48.2 °F - 35.6 °F 62% 30.21 in 1.0 mi Calm Calm - N/A   Haze
10:20 PM 48.2 °F - 35.6 °F 62% 30.21 in 1.0 mi Calm Calm - N/A   Haze
10:28 PM 48.2 °F - 35.6 °F 62% 30.21 in 0.8 mi Calm Calm - N/A   Haze
10:31 PM 48.2 °F - 35.6 °F 62% 30.21 in 0.8 mi Calm Calm - N/A   Haze
10:33 PM 48.2 °F - 35.6 °F 62% 30.21 in 1.0 mi Calm Calm - N/A   Haze
10:36 PM 48.2 °F - 35.6 °F 62% 30.21 in 1.2 mi Calm Calm - N/A   Haze
10:38 PM 48.2 °F - 35.6 °F 62% 30.21 in 1.5 mi Calm Calm - N/A   Haze
10:40 PM 48.2 °F - 35.6 °F 62% 30.21 in 2.0 mi Calm Calm - N/A   Haze
10:43 PM 48.2 °F - 35.6 °F 62% 30.21 in 1.8 mi Calm Calm - N/A   Haze
10:46 PM 48.2 °F - 35.6 °F 62% 30.21 in 1.2 mi Calm Calm - N/A   Haze
10:48 PM 48.2 °F - 35.6 °F 62% 30.21 in 1.0 mi Calm Calm - N/A   Haze
10:55 PM 47.5 °F - 35.6 °F 63% 30.21 in 1.0 mi Calm Calm - N/A   Haze
11:01 PM 46.4 °F 45.2 °F 35.6 °F 66% 30.21 in 1.2 mi NNE 3.5 mph - N/A   Haze
11:04 PM 46.4 °F 45.2 °F 35.6 °F 66% 30.21 in 1.5 mi NNE 3.5 mph - N/A   Haze
11:21 PM 46.4 °F 44.3 °F 35.6 °F 66% 30.22 in 2.0 mi NNE 4.6 mph - N/A   Haze
11:41 PM 46.4 °F 44.3 °F 35.6 °F 66% 30.22 in 2.5 mi NNE 4.6 mph - N/A   Haze
11:44 PM 46.4 °F 44.3 °F 35.6 °F 66% 30.22 in 3.0 mi NNE 4.6 mph - N/A   Haze
11:47 PM 46.4 °F 44.3 °F 35.6 °F 66% 30.22 in 3.0 mi NNE 4.6 mph - N/A   Haze
11:55 PM 46.6 °F - 36.3 °F 67% 30.22 in 4.0 mi NNE 4.6 mph - N/A   Haze